Location: Mohawk View
(42.7837°N, 73.7885°W)
Time: 15:07:54
(UTC+00:00)

Lacrosse 5 rocket - Pass Details

Date: 17 June 2021
Orbit: 460 x 633 km, 57.0° (Epoch: 02 August)

Event Time Altitude Azimuth Distance (km) Brightness Sun altitude
Rises 08:13:15 0° 321° (NW) 2,493 4.8 -9.8°
Reaches altitude 10° 08:15:49 10° 339° (NNW) 1,626 4.1 -9.4°
Maximum altitude 08:18:31 19° 28° (NNE) 1,179 4.1 -9.1°
Drops below altitude 10° 08:21:16 10° 75° (ENE) 1,663 4.8 -8.7°
Sets 08:23:56 0° 94° (E) 2,570 5.4 -8.4°
